Time,TemperatureF,DewpointF,PressureIn,WindDirection,WindDirectionDegrees,WindSpeedMPH,WindSpeedGustMPH,Humidity,HourlyPrecipIn,Conditions,Clouds,dailyrainin,SoftwareType,DateUTC
2013-12-11 00:02:00,50.4,16.0,30.01,WNW,294,0.0,-999.0,25,-99.99,,,0.00,weatherlink.com 1.10,2013-12-11 08:02:00,
2013-12-11 00:17:00,50.8,15.0,30.00,NNW,333,0.0,-999.0,24,-99.99,,,0.00,weatherlink.com 1.10,2013-12-11 08:17:00,
2013-12-11 00:32:00,50.7,15.0,30.00,NW,310,0.0,-999.0,24,-99.99,,,0.00,weatherlink.com 1.10,2013-12-11 08:32:00,
2013-12-11 00:47:00,50.5,15.0,30.00,West,265,0.0,-999.0,24,-99.99,,,0.00,weatherlink.com 1.10,2013-12-11 08:47:00,
2013-12-11 01:02:00,51.0,15.0,29.99,WNW,300,0.0,-999.0,24,-99.99,,,0.00,weatherlink.com 1.10,2013-12-11 09:02:00,
2013-12-11 01:17:00,51.5,15.0,30.00,WSW,246,0.0,-999.0,23,-99.99,,,0.00,weatherlink.com 1.10,2013-12-11 09:17:00,
2013-12-11 01:32:00,51.6,15.0,30.00,WNW,284,0.0,-999.0,23,-99.99,,,0.00,weatherlink.com 1.10,2013-12-11 09:32:00,
2013-12-11 01:47:00,51.8,15.0,29.99,West,279,0.0,-999.0,23,-99.99,,,0.00,weatherlink.com 1.10,2013-12-11 09:47:00,
2013-12-11 02:02:00,52.1,16.0,29.99,NNW,333,0.0,-999.0,24,-99.99,,,0.00,weatherlink.com 1.10,2013-12-11 10:02:00,
2013-12-11 02:17:00,51.9,16.0,30.00,NW,311,0.0,-999.0,24,-99.99,,,0.00,weatherlink.com 1.10,2013-12-11 10:17:00,
2013-12-11 02:32:00,52.1,15.0,30.00,NW,311,0.0,-999.0,23,-99.99,,,0.00,weatherlink.com 1.10,2013-12-11 10:32:00,
2013-12-11 02:47:00,52.0,15.0,30.00,NW,316,0.0,-999.0,23,-99.99,,,0.00,weatherlink.com 1.10,2013-12-11 10:47:00,
2013-12-11 03:02:00,51.7,15.0,29.99,NW,309,0.0,-999.0,23,-99.99,,,0.00,weatherlink.com 1.10,2013-12-11 11:02:00,
2013-12-11 03:17:00,51.1,15.0,30.00,NW,319,0.0,-999.0,24,-99.99,,,0.00,weatherlink.com 1.10,2013-12-11 11:17:00,
2013-12-11 03:32:00,50.4,16.0,30.00,NW,319,0.0,-999.0,25,-99.99,,,0.00,weatherlink.com 1.10,2013-12-11 11:32:00,
2013-12-11 03:47:00,49.6,15.0,29.99,SSW,206,0.0,-999.0,25,-99.99,,,0.00,weatherlink.com 1.10,2013-12-11 11:47:00,
2013-12-11 04:02:00,48.9,15.0,29.99,SW,215,0.0,-999.0,26,-99.99,,,0.00,weatherlink.com 1.10,2013-12-11 12:02:00,
2013-12-11 04:17:00,48.6,16.0,29.99,SW,215,0.0,-999.0,27,-99.99,,,0.00,weatherlink.com 1.10,2013-12-11 12:17:00,
2013-12-11 04:32:00,48.1,16.0,29.99,SSW,213,0.0,-999.0,28,-99.99,,,0.00,weatherlink.com 1.10,2013-12-11 12:32:00,
2013-12-11 04:47:00,48.0,17.0,29.99,SSW,211,0.0,-999.0,29,-99.99,,,0.00,weatherlink.com 1.10,2013-12-11 12:47:00,
2013-12-11 05:02:00,47.4,16.0,29.99,SSW,211,0.0,-999.0,29,-99.99,,,0.00,weatherlink.com 1.10,2013-12-11 13:02:00,
2013-12-11 05:17:00,47.5,19.0,29.99,SSW,211,0.0,-999.0,32,-99.99,,,0.00,weatherlink.com 1.10,2013-12-11 13:17:00,
2013-12-11 05:32:00,47.0,18.0,30.00,SSW,211,0.0,-999.0,32,-99.99,,,0.00,weatherlink.com 1.10,2013-12-11 13:32:00,
2013-12-11 05:47:00,46.4,18.0,30.00,SSW,211,0.0,-999.0,32,-99.99,,,0.00,weatherlink.com 1.10,2013-12-11 13:47:00,
2013-12-11 06:02:00,45.9,17.0,30.00,SSW,211,0.0,-999.0,32,-99.99,,,0.00,weatherlink.com 1.10,2013-12-11 14:02:00,
2013-12-11 06:17:00,45.6,18.0,30.00,SSW,211,0.0,-999.0,33,-99.99,,,0.00,weatherlink.com 1.10,2013-12-11 14:17:00,
2013-12-11 06:32:00,45.8,18.0,30.01,SSW,211,0.0,-999.0,33,-99.99,,,0.00,weatherlink.com 1.10,2013-12-11 14:32:00,
2013-12-11 06:47:00,48.3,16.0,30.02,WSW,242,0.0,-999.0,28,-99.99,,,0.00,weatherlink.com 1.10,2013-12-11 14:47:00,
2013-12-11 07:02:00,52.0,17.0,30.02,West,266,0.0,-999.0,25,-99.99,,,0.00,weatherlink.com 1.10,2013-12-11 15:02:00,
2013-12-11 07:17:00,54.0,18.0,30.02,West,266,0.0,-999.0,24,-99.99,,,0.00,weatherlink.com 1.10,2013-12-11 15:17:00,
2013-12-11 07:32:00,54.9,17.0,30.03,WNW,282,0.0,-999.0,22,-99.99,,,0.00,weatherlink.com 1.10,2013-12-11 15:32:00,
2013-12-11 07:47:00,56.0,17.0,30.04,North,360,0.0,-999.0,22,-99.99,,,0.00,weatherlink.com 1.10,2013-12-11 15:47:00,
2013-12-11 08:02:00,57.3,19.0,30.04,North,360,0.0,-999.0,22,-99.99,,,0.00,weatherlink.com 1.10,2013-12-11 16:02:00,
2013-12-11 08:17:00,58.7,19.0,30.04,North,350,0.0,-999.0,21,-99.99,,,0.00,weatherlink.com 1.10,2013-12-11 16:17:00,
2013-12-11 08:32:00,60.1,17.0,30.04,WNW,284,3.0,-999.0,19,-99.99,,,0.00,weatherlink.com 1.10,2013-12-11 16:32:00,
2013-12-11 08:47:00,62.0,19.0,30.05,West,270,0.0,-999.0,19,-99.99,,,0.00,weatherlink.com 1.10,2013-12-11 16:47:00,
2013-12-11 09:02:00,64.2,20.0,30.05,WSW,256,0.0,-999.0,18,-99.99,,,0.00,weatherlink.com 1.10,2013-12-11 17:02:00,
2013-12-11 09:17:00,66.1,20.0,30.05,WSW,240,0.0,-999.0,17,-99.99,,,0.00,weatherlink.com 1.10,2013-12-11 17:17:00,
2013-12-11 09:32:00,67.1,19.0,30.05,West,264,0.0,-999.0,16,-99.99,,,0.00,weatherlink.com 1.10,2013-12-11 17:32:00,
2013-12-11 09:47:00,67.6,20.0,30.05,WSW,243,0.0,-999.0,16,-99.99,,,0.00,weatherlink.com 1.10,2013-12-11 17:47:00,
2013-12-11 10:02:00,68.2,20.0,30.05,NNW,334,3.0,-999.0,16,-99.99,,,0.00,weatherlink.com 1.10,2013-12-11 18:02:00,
2013-12-11 10:17:00,68.6,19.0,30.05,SW,216,1.0,-999.0,15,-99.99,,,0.00,weatherlink.com 1.10,2013-12-11 18:17:00,
2013-12-11 10:32:00,69.2,20.0,30.05,WNW,298,0.0,-999.0,15,-99.99,,,0.00,weatherlink.com 1.10,2013-12-11 18:32:00,
2013-12-11 10:47:00,69.1,21.0,30.05,West,279,0.0,-999.0,16,-99.99,,,0.00,weatherlink.com 1.10,2013-12-11 18:47:00,
2013-12-11 11:02:00,69.1,21.0,30.04,NW,306,0.0,-999.0,16,-99.99,,,0.00,weatherlink.com 1.10,2013-12-11 19:02:00,
2013-12-11 11:17:00,70.0,22.0,30.03,WSW,257,0.0,-999.0,16,-99.99,,,0.00,weatherlink.com 1.10,2013-12-11 19:17:00,
2013-12-11 11:32:00,70.6,21.0,30.03,NW,323,0.0,-999.0,15,-99.99,,,0.00,weatherlink.com 1.10,2013-12-11 19:32:00,
2013-12-11 11:47:00,71.3,23.0,30.02,WNW,284,0.0,-999.0,16,-99.99,,,0.00,weatherlink.com 1.10,2013-12-11 19:47:00,
2013-12-11 12:02:00,71.6,21.0,30.01,SSW,204,0.0,-999.0,15,-99.99,,,0.00,weatherlink.com 1.10,2013-12-11 20:02:00,
2013-12-11 12:17:00,71.7,22.0,30.01,West,272,0.0,-999.0,15,-99.99,,,0.00,weatherlink.com 1.10,2013-12-11 20:17:00,
2013-12-11 12:32:00,71.7,22.0,30.00,WNW,299,0.0,-999.0,15,-99.99,,,0.00,weatherlink.com 1.10,2013-12-11 20:32:00,
2013-12-11 12:47:00,72.2,22.0,30.00,NW,311,0.0,-999.0,15,-99.99,,,0.00,weatherlink.com 1.10,2013-12-11 20:47:00,
2013-12-11 13:02:00,72.0,23.0,30.00,NW,321,0.0,-999.0,16,-99.99,,,0.00,weatherlink.com 1.10,2013-12-11 21:02:00,
2013-12-11 13:17:00,72.0,22.0,29.99,North,349,0.0,-999.0,15,-99.99,,,0.00,weatherlink.com 1.10,2013-12-11 21:17:00,
2013-12-11 13:33:00,72.4,24.0,29.98,WNW,286,0.0,-999.0,16,-99.99,,,0.00,weatherlink.com 1.10,2013-12-11 21:33:00,
2013-12-11 13:47:00,72.8,24.0,29.98,NNW,332,0.0,-999.0,16,-99.99,,,0.00,weatherlink.com 1.10,2013-12-11 21:47:00,
2013-12-11 14:02:00,72.9,23.0,29.98,NNE,24,0.0,-999.0,15,-99.99,,,0.00,weatherlink.com 1.10,2013-12-11 22:02:00,
2013-12-11 14:17:00,72.4,24.0,29.98,NW,323,0.0,-999.0,16,-99.99,,,0.00,weatherlink.com 1.10,2013-12-11 22:17:00,
2013-12-11 14:32:00,72.2,23.0,29.98,West,267,0.0,-999.0,16,-99.99,,,0.00,weatherlink.com 1.10,2013-12-11 22:32:00,
2013-12-11 14:47:00,72.1,25.0,29.99,WNW,285,0.0,-999.0,17,-99.99,,,0.00,weatherlink.com 1.10,2013-12-11 22:47:00,
2013-12-11 15:02:00,72.1,23.0,29.99,NNW,348,0.0,-999.0,16,-99.99,,,0.00,weatherlink.com 1.10,2013-12-11 23:02:00,
2013-12-11 15:17:00,71.8,23.0,29.99,SSW,207,0.0,-999.0,16,-99.99,,,0.00,weatherlink.com 1.10,2013-12-11 23:17:00,
2013-12-11 15:32:00,71.3,23.0,30.00,North,11,0.0,-999.0,16,-99.99,,,0.00,weatherlink.com 1.10,2013-12-11 23:32:00,
2013-12-11 15:47:00,70.0,22.0,30.00,West,279,0.0,-999.0,16,-99.99,,,0.00,weatherlink.com 1.10,2013-12-11 23:47:00,
2013-12-11 16:02:00,68.2,22.0,30.00,WNW,282,0.0,-999.0,17,-99.99,,,0.00,weatherlink.com 1.10,2013-12-12 00:02:00,
2013-12-11 16:17:00,66.8,20.0,30.01,NW,313,0.0,-999.0,17,-99.99,,,0.00,weatherlink.com 1.10,2013-12-12 00:17:00,
2013-12-11 16:32:00,65.7,20.0,30.01,NNW,345,0.0,-999.0,17,-99.99,,,0.00,weatherlink.com 1.10,2013-12-12 00:32:00,
2013-12-11 16:47:00,64.4,21.0,30.02,NNW,332,0.0,-999.0,19,-99.99,,,0.00,weatherlink.com 1.10,2013-12-12 00:47:00,
2013-12-11 17:02:00,62.9,21.0,30.02,NNE,12,0.0,-999.0,20,-99.99,,,0.00,weatherlink.com 1.10,2013-12-12 01:02:00,
2013-12-11 17:17:00,61.1,21.0,30.03,NNE,12,0.0,-999.0,21,-99.99,,,0.00,weatherlink.com 1.10,2013-12-12 01:17:00,
2013-12-11 17:32:00,60.8,19.0,30.03,WSW,246,0.0,-999.0,20,-99.99,,,0.00,weatherlink.com 1.10,2013-12-12 01:32:00,
2013-12-11 17:47:00,60.5,19.0,30.03,WSW,246,0.0,-999.0,20,-99.99,,,0.00,weatherlink.com 1.10,2013-12-12 01:47:00,
2013-12-11 18:02:00,60.3,19.0,30.03,WNW,286,3.0,-999.0,20,-99.99,,,0.00,weatherlink.com 1.10,2013-12-12 02:02:00,
2013-12-11 18:17:00,60.7,19.0,30.04,West,261,0.0,-999.0,20,-99.99,,,0.00,weatherlink.com 1.10,2013-12-12 02:17:00,
2013-12-11 18:32:00,60.7,20.0,30.04,West,261,0.0,-999.0,21,-99.99,,,0.00,weatherlink.com 1.10,2013-12-12 02:32:00,
2013-12-11 18:47:00,60.1,19.0,30.05,West,260,0.0,-999.0,20,-99.99,,,0.00,weatherlink.com 1.10,2013-12-12 02:47:00,
2013-12-11 19:02:00,59.6,19.0,30.05,West,259,0.0,-999.0,21,-99.99,,,0.00,weatherlink.com 1.10,2013-12-12 03:02:00,
2013-12-11 19:17:00,59.0,19.0,30.05,West,270,0.0,-999.0,21,-99.99,,,0.00,weatherlink.com 1.10,2013-12-12 03:17:00,
2013-12-11 19:32:00,58.1,20.0,30.05,West,270,0.0,-999.0,23,-99.99,,,0.00,weatherlink.com 1.10,2013-12-12 03:32:00,
2013-12-11 19:47:00,57.5,20.0,30.05,West,270,0.0,-999.0,23,-99.99,,,0.00,weatherlink.com 1.10,2013-12-12 03:47:00,
2013-12-11 20:02:00,57.3,20.0,30.05,West,270,0.0,-999.0,23,-99.99,,,0.00,weatherlink.com 1.10,2013-12-12 04:02:00,
2013-12-11 20:17:00,57.2,18.0,30.05,West,270,0.0,-999.0,22,-99.99,,,0.00,weatherlink.com 1.10,2013-12-12 04:17:00,
2013-12-11 20:32:00,57.9,19.0,30.05,West,268,0.0,-999.0,22,-99.99,,,0.00,weatherlink.com 1.10,2013-12-12 04:32:00,
2013-12-11 20:47:00,58.1,19.0,30.05,West,265,0.0,-999.0,22,-99.99,,,0.00,weatherlink.com 1.10,2013-12-12 04:47:00,
2013-12-11 21:02:00,57.9,19.0,30.06,NNW,346,0.0,-999.0,22,-99.99,,,0.00,weatherlink.com 1.10,2013-12-12 05:02:00,
2013-12-11 21:17:00,59.0,19.0,30.06,NW,315,0.0,-999.0,21,-99.99,,,0.00,weatherlink.com 1.10,2013-12-12 05:17:00,
2013-12-11 21:32:00,58.3,20.0,30.06,NW,315,0.0,-999.0,23,-99.99,,,0.00,weatherlink.com 1.10,2013-12-12 05:32:00,
2013-12-11 21:47:00,57.7,20.0,30.06,NW,315,0.0,-999.0,23,-99.99,,,0.00,weatherlink.com 1.10,2013-12-12 05:47:00,
2013-12-11 22:02:00,58.1,20.0,30.06,NW,323,0.0,-999.0,23,-99.99,,,0.00,weatherlink.com 1.10,2013-12-12 06:02:00,
2013-12-11 22:17:00,58.2,19.0,30.06,NW,323,0.0,-999.0,22,-99.99,,,0.00,weatherlink.com 1.10,2013-12-12 06:17:00,
2013-12-11 22:32:00,58.1,19.0,30.06,NW,318,0.0,-999.0,22,-99.99,,,0.00,weatherlink.com 1.10,2013-12-12 06:32:00,
2013-12-11 22:47:00,57.8,20.0,30.06,NE,36,0.0,-999.0,23,-99.99,,,0.00,weatherlink.com 1.10,2013-12-12 06:47:00,
2013-12-11 23:02:00,57.1,20.0,30.06,NE,35,0.0,-999.0,24,-99.99,,,0.00,weatherlink.com 1.10,2013-12-12 07:02:00,
2013-12-11 23:18:00,58.2,19.0,30.05,NNW,338,0.0,-999.0,22,-99.99,,,0.00,weatherlink.com 1.10,2013-12-12 07:18:00,
2013-12-11 23:32:00,59.0,20.0,30.05,SW,219,0.0,-999.0,22,-99.99,,,0.00,weatherlink.com 1.10,2013-12-12 07:32:00,
2013-12-11 23:47:00,59.4,20.0,30.06,SW,231,0.0,-999.0,22,-99.99,,,0.00,weatherlink.com 1.10,2013-12-12 07:47:00,